Regional Weather Roundup
Issued by NWS

Home | Current Version | Previous Version | Graphics & Text | Print | Product List | Glossary On
Versions: 1 2 3 4 5 6 7 8 9 10 11 12 13 14 15 16 17 18 19 20 21 22 23 24 25 26 27 28 29 30 31 32 33 34 35 36 37 38 39 40 41 42 43 44 45 46 47 48 49 50
000
ASUS43 KOAX 011710
RWRNE

WEATHER ROUNDUP FOR NEBRASKA
NATIONAL WEATHER SERVICE OMAHA NE
1100 AM CST SUN MAR 01 2015

NOTES: SATELLITE DATA IS BEING USED TO AUGMENT CLOUD COVER ABOVE
       12000 FEET.
       "FAIR" INDICATES FEW OR NO CLOUDS BELOW 12,000 FEET WITH NO
       SIGNIFICANT WEATHER AND/OR OBSTRUCTIONS TO VISIBILITY.

  * THESE STATIONS DO NOT REPORT WEATHER SUCH AS RAIN...SNOW OR FOG.

NEZ001>004-019>022-054>056-011800-
NEBRASKA PANHANDLE

CITY           SKY/WX    TMP DP  RH WIND       PRES   REMARKS
SCOTTSBLUFF    CLOUDY    27  13  55 VRB7      30.29R WCI  19
ALLIANCE       CLOUDY    26  12  55 NW8       30.27R WCI  18
CHADRON        SUNNY     29  13  51 W10       30.31R WCI  20
KIMBALL        CLOUDY    22  16  78 N5        30.22S WCI  16
SIDNEY         MOSUNNY   25  16  68 N10       30.27R WCI  15
$$

NEZ057>060-069>072-079>082-011800-
SOUTHWEST NEBRASKA

CITY           SKY/WX    TMP DP  RH WIND       PRES   REMARKS
NORTH PLATTE   SUNNY     30   7  37 N5        30.33R WCI  25
IMPERIAL         N/A     30  13  49 N12       30.30R WCI  20
LEXINGTON      SUNNY     30  14  50 NE5       30.34R WCI  25
MCCOOK         MOSUNNY   31  13  47 N7        30.33R WCI  24
OGALLALA       SUNNY     27  15  60 E5        30.31R WCI  22
$$

NEZ005>010-023>029-035>040-094-011800-
NORTH CENTRAL NEBRASKA

CITY           SKY/WX    TMP DP  RH WIND       PRES   REMARKS
VALENTINE      CLOUDY    26  12  55 NW9       30.32S WCI  17
AINSWORTH      SUNNY     27  12  53 NW13      30.32S WCI  16
BROKEN BOW     SUNNY     30  13  49 N8        30.33R WCI  22
O`NEILL        SUNNY     28  16  59 W10G16    30.34F WCI  19
ORD            SUNNY     30  11  45 N9        30.35R WCI  22
THEDFORD       MOSUNNY   28  15  57 W5        30.33R WCI  23
$$

NEZ041-046>049-061>064-073>077-083>087-011800-
SOUTH CENTRAL NEBRASKA

CITY           SKY/WX    TMP DP  RH WIND       PRES   REMARKS
GRAND ISLAND   SUNNY     30  15  53 N12       30.37R WCI  20
AURORA         SUNNY     30  16  54 N8        30.36R WCI  23
HASTINGS       SUNNY     31  14  49 N8        30.34R WCI  23
HEBRON         SUNNY     28  19  67 CALM      30.38F
HOLDREGE       SUNNY     31  15  51 NW3       30.34R
KEARNEY *      SUNNY     30  12  47 N8        30.35R WCI  23
YORK           SUNNY     30  18  59 N10       30.37R WCI  21
$$

NEZ011>018-030>034-042>045-011800-
NORTHEAST NEBRASKA

CITY           SKY/WX    TMP DP  RH WIND       PRES   REMARKS
NORFOLK        CLOUDY    29  12  49 N9        30.36R WCI  20
ALBION         PTSUNNY   29  12  47 NW7       30.36R WCI  22
BLAIR          SUNNY     29  17  62 NW7       30.37R WCI  22
COLUMBUS *     SUNNY     30  10  43 N8        30.39R WCI  23
FREMONT        SUNNY     32  17  54 N7        30.38R WCI  26
TEKAMAH        SUNNY     30  14  51 N13       30.39S WCI  20
WAYNE          CLOUDY    27  12  53 NW8       30.37S WCI  19
$$

NEZ050>053-065>068-078-088>093-011800-
SOUTHEAST NEBRASKA

CITY           SKY/WX    TMP DP  RH WIND       PRES   REMARKS
LINCOLN        MOSUNNY   29  18  63 N6        30.40R WCI  23
OMAHA EPPLEY   MOSUNNY   29  17  61 N5        30.39S WCI  24
BEATRICE       PTSUNNY   28  20  72 NW9       30.39S WCI  19
FALLS CITY     MOSUNNY   29  19  66 NW9       30.41R WCI  20
NEBRASKA CITY  SUNNY     29  17  61 NW7       30.39R WCI  22
PLATTSMOUTH    SUNNY     27  17  66 NW6       30.38R WCI  21
$$

NEZ044-045-051>053-067-011800-
OMAHA AREA

CITY           SKY/WX    TMP DP  RH WIND       PRES   REMARKS
OMAHA EPPLEY   MOSUNNY   29  17  61 N5        30.39S WCI  24
BLAIR          SUNNY     29  17  62 NW7       30.37R WCI  22
FREMONT        SUNNY     32  17  54 N7        30.38R WCI  26
MILLARD        SUNNY     29  17  61 NW7       30.38S WCI  22
OFFUTT AFB     SUNNY     28  17  62 VRB5      30.38S WCI  23
PLATTSMOUTH    SUNNY     27  17  66 NW6       30.38R WCI  21
WAHOO          FAIR      30  17  56 N7        30.39R WCI  23
$$



USA.gov is the U.S. government's official web portal to all federal, state and local government web resources and services.